{"data":{"norad_id":65355,"intl_designator":"2025-190E","name":"STARLINK-34823","alt_names":[],"object_type":"PAYLOAD","status":"ACTIVE","operator":null,"country":"US","launch_date":"2025-08-28","launch_site_code":"AFETR","launch_vehicle":null,"mission":null,"orbit_class":"UNKNOWN","rcs_meters":null,"size_class":null,"mass_kg":null,"dimensions":null,"purposes":["comms"],"wikipedia_slug":null,"has_3d_model":false,"image_url":null,"decayed_at":null,"tle_current":{"epoch":"2026-09-20T12:12:28.579104Z","epoch_age_seconds":116725,"freshness":"FRESH","line1":"1 65355U 25190E   26263.50866411  .00026466  00000+0  79140-3 0  9998","line2":"2 65355  53.1591 341.7957 0001202  69.5884 290.5248 15.34410778 59601","mean_motion":15.34410778,"eccentricity":0.0001202,"inclination_deg":53.1591,"raan_deg":341.7957,"arg_perigee_deg":69.5884,"mean_anomaly_deg":290.5248,"bstar":0.0007914,"rev_number":5960,"period_min":93.847098876413,"perigee_km":461.84894076091,"apogee_km":463.49347105361,"semimajor_km":6840.8082059073,"source":"CELESTRAK","updated_at":"2026-09-21T09:00:35.575767Z"}}}